EW0199 Weather Reports


Display with metric or nautical units.
time (UTC)temp
F
wind
direction
speed
MPH
gust
MPH
rain 1hr
in
rain 24hr
in
rain mn
in
humidity
%
barometer
mb
20260903124828 65 264 0.0 2.0 0.00 0.00 0.00 94 1012.7
20260903124344 64 321 0.0 2.0 0.00 0.00 0.00 94 1012.9
20260903123910 64 116 0.0 2.0 0.00 0.00 0.00 94 1012.8
20260903123335 64 317 0.0 2.0 0.00 0.00 0.00 94 1012.8
20260903122857 64 69 0.0 2.0 0.00 0.00 0.00 94 1012.7
20260903122406 64 302 0.0 2.0 0.00 0.00 0.00 94 1012.9
20260903121858 64 278 0.0 1.0 0.00 0.00 0.00 94 1012.7
20260903121420 64 311 0.0 1.0 0.00 0.00 0.00 94 1013.0
20260903120855 64 293 0.0 1.0 0.00 0.00 0.00 94 1013.0
20260903120338 64 324 0.0 1.0 0.00 0.01 0.00 94 1013.0
20260903115921 63 324 0.0 1.0 0.00 0.01 0.00 95 1013.0
20260903115342 63 310 0.0 1.0 0.00 0.01 0.00 95 1013.0
20260903114904 63 305 0.0 1.0 0.00 0.01 0.00 95 1013.0
20260903114402 63 282 0.0 1.0 0.00 0.01 0.00 95 1012.9
20260903113844 63 289 0.0 0.0 0.00 0.01 0.00 95 1012.8
20260903113327 63 289 0.0 3.0 0.00 0.01 0.00 95 1012.7
20260903112910 63 287 0.0 3.0 0.00 0.01 0.00 95 1012.7
20260903112334 63 278 0.0 1.0 0.00 0.01 0.00 96 1012.7
20260903111858 63 296 0.0 1.0 0.00 0.01 0.00 96 1012.7
20260903111418 63 310 0.0 1.0 0.00 0.01 0.00 96 1012.7
20260903110939 63 321 0.0 1.0 0.00 0.01 0.00 96 1012.7
20260903103332 62 317 0.0 1.0 0.00 0.20 0.00 97 1012.5